Вернуться в каталог

STARLINK-33615

АктивенСвязьVLEO
NORAD 63426·PAYLOAD·🇺🇸 United States

Запущен Mar 31, 2025 с Cape Canaveral Space Force Station

Loading…

Ближайшие Пролёты (ближайшие 24 часа)

TLE

СвежийSource: CelesTrak SupGP

Эпоха: Sep 15, 2026, 03:42 UTC

1 63426C 25065AD  26258.15465278  .00031027  00000+0  11236-2 0  2585
2 63426  42.9999 117.3631 0001490 272.1721  34.1773 15.27569698    17

Отслеживайте STARLINK-33615 в реальном времени с AllMySat

Download on the App Store